Stündliche Wetter Abrosimovo

Heute, 24 Juni, Donnerstag

Zeit Temperatur Niederschläge Wind Luftdruck Luftfeuchtigkeit
00:00 +24°C° 0 mm 1 m/S 753 mmHg 81%
01:00 +23°C° 0 mm 1 m/S 753 mmHg 84%
02:00 +23°C° 0 mm 1 m/S 753 mmHg 87%
03:00 +23°C° 0 mm 1 m/S 753 mmHg 86%
04:00 +24°C° 0 mm 1 m/S 753 mmHg 86%
05:00 +24°C° 0 mm 1 m/S 753 mmHg 86%
06:00 +25°C° 0.2 mm 1 m/S 753 mmHg 81%
07:00 +27°C° 0.2 mm 1 m/S 753 mmHg 77%
08:00 +28°C° 0.2 mm 1 m/S 753 mmHg 72%
09:00 +29°C° 0.3 mm 1 m/S 753 mmHg 68%
10:00 +30°C° 0.3 mm 1 m/S 753 mmHg 63%
11:00 +31°C° 0.3 mm 1 m/S 753 mmHg 59%
12:00 +32°C° 0 mm 2 m/S 753 mmHg 53%
13:00 +34°C° 0 mm 2 m/S 753 mmHg 47%
14:00 +35°C° 0 mm 2 m/S 752 mmHg 41%
15:00 +35°C° 0.2 mm 2 m/S 752 mmHg 44%
16:00 +34°C° 0.2 mm 2 m/S 751 mmHg 48%
17:00 +32°C° 0.2 mm 2 m/S 751 mmHg 51%
18:00 +28°C° 4.7 mm 2 m/S 751 mmHg 66%
19:00 +25°C° 4.7 mm 2 m/S 752 mmHg 81%
20:00 +20°C° 4.7 mm 2 m/S 753 mmHg 97%
21:00 +20°C° 3 mm 2 m/S 752 mmHg 96%
22:00 +20°C° 3 mm 2 m/S 752 mmHg 96%
23:00 +20°C° 3 mm 2 m/S 752 mmHg 96%

Morgen, 25 Juni, Freitag

Zeit Temperatur Niederschläge Wind Luftdruck Luftfeuchtigkeit
00:00 +20°C° 0 mm 2 m/S 751 mmHg 95%
01:00 +19°C° 0 mm 2 m/S 751 mmHg 95%
02:00 +19°C° 0 mm 2 m/S 751 mmHg 95%
03:00 +19°C° 0.4 mm 2 m/S 751 mmHg 95%
04:00 +21°C° 0.4 mm 1 m/S 751 mmHg 96%
05:00 +21°C° 0.4 mm 1 m/S 751 mmHg 96%
06:00 +23°C° 0.1 mm 1 m/S 750 mmHg 90%
07:00 +24°C° 0.1 mm 2 m/S 750 mmHg 84%
08:00 +26°C° 0.1 mm 2 m/S 750 mmHg 79%
09:00 +28°C° 0 mm 2 m/S 750 mmHg 69%
10:00 +30°C° 0 mm 2 m/S 750 mmHg 59%
11:00 +32°C° 0 mm 2 m/S 750 mmHg 49%
12:00 +34°C° 0 mm 2 m/S 749 mmHg 47%
13:00 +34°C° 0 mm 3 m/S 749 mmHg 45%
14:00 +35°C° 0 mm 3 m/S 749 mmHg 43%
15:00 +31°C° 2.5 mm 3 m/S 749 mmHg 55%
16:00 +29°C° 2.5 mm 3 m/S 748 mmHg 66%
17:00 +27°C° 2.5 mm 3 m/S 748 mmHg 77%
18:00 +25°C° 2.1 mm 3 m/S 748 mmHg 83%
19:00 +23°C° 2.1 mm 2 m/S 748 mmHg 90%
20:00 +21°C° 2.1 mm 1 m/S 748 mmHg 97%
21:00 +20°C° 0.3 mm 2 m/S 749 mmHg 97%
22:00 +19°C° 0.3 mm 2 m/S 749 mmHg 96%
23:00 +19°C° 0.3 mm 2 m/S 749 mmHg 96%

übermorgen, 26 Juni, Samstag

Zeit Temperatur Niederschläge Wind Luftdruck Luftfeuchtigkeit
00:00 +19°C° 0.2 mm 2 m/S 749 mmHg 97%
01:00 +19°C° 0.2 mm 2 m/S 748 mmHg 97%
02:00 +19°C° 0.2 mm 2 m/S 748 mmHg 98%
03:00 +20°C° 0.1 mm 1 m/S 748 mmHg 98%
04:00 +21°C° 0.1 mm 1 m/S 748 mmHg 98%
05:00 +21°C° 0.1 mm 1 m/S 748 mmHg 98%
06:00 +22°C° 0.4 mm 1 m/S 748 mmHg 96%
07:00 +22°C° 0.4 mm 1 m/S 749 mmHg 95%
08:00 +23°C° 0.4 mm 2 m/S 749 mmHg 93%
09:00 +23°C° 0.1 mm 2 m/S 749 mmHg 92%
10:00 +22°C° 0.1 mm 3 m/S 749 mmHg 91%
11:00 +22°C° 0.1 mm 3 m/S 750 mmHg 90%
12:00 +24°C° 0 mm 3 m/S 750 mmHg 84%
13:00 +25°C° 0 mm 3 m/S 750 mmHg 77%
14:00 +26°C° 0 mm 3 m/S 750 mmHg 70%
15:00 +26°C° 0 mm 3 m/S 750 mmHg 66%
16:00 +27°C° 0 mm 3 m/S 750 mmHg 62%
17:00 +28°C° 0 mm 3 m/S 750 mmHg 58%
18:00 +26°C° 0 mm 3 m/S 750 mmHg 64%
19:00 +24°C° 0 mm 2 m/S 750 mmHg 71%
20:00 +21°C° 0 mm 2 m/S 750 mmHg 77%
21:00 +20°C° 0 mm 2 m/S 751 mmHg 82%
22:00 +18°C° 0 mm 2 m/S 751 mmHg 87%
23:00 +18°C° 0 mm 1 m/S 751 mmHg 92%

27 Juni, Sonntag

Zeit Temperatur Niederschläge Wind Luftdruck Luftfeuchtigkeit
00:00 +18°C° 0 mm 1 m/S 751 mmHg 93%
01:00 +16°C° 0 mm 1 m/S 751 mmHg 95%
02:00 +16°C° 0 mm 1 m/S 751 mmHg 97%
03:00 +18°C° 0 mm 1 m/S 751 mmHg 96%
04:00 +18°C° 0 mm 1 m/S 751 mmHg 95%
05:00 +18°C° 0 mm 1 m/S 751 mmHg 94%
06:00 +20°C° 0 mm 1 m/S 751 mmHg 87%
07:00 +21°C° 0 mm 1 m/S 752 mmHg 80%
08:00 +23°C° 0 mm 2 m/S 752 mmHg 73%
09:00 +23°C° 0 mm 2 m/S 752 mmHg 70%
10:00 +23°C° 0 mm 2 m/S 752 mmHg 68%
11:00 +24°C° 0 mm 2 m/S 752 mmHg 65%
12:00 +24°C° 0.2 mm 2 m/S 752 mmHg 68%
13:00 +23°C° 0.2 mm 1 m/S 752 mmHg 70%
14:00 +23°C° 0.2 mm 1 m/S 752 mmHg 73%
15:00 +23°C° 0.1 mm 1 m/S 752 mmHg 73%
16:00 +23°C° 0.1 mm 1 m/S 752 mmHg 74%
17:00 +23°C° 0.1 mm 1 m/S 751 mmHg 75%
18:00 +22°C° 0 mm 1 m/S 751 mmHg 78%
19:00 +22°C° 0 mm 1 m/S 751 mmHg 81%
20:00 +21°C° 0 mm 1 m/S 751 mmHg 84%
21:00 +20°C° 0 mm 1 m/S 751 mmHg 87%
22:00 +19°C° 0 mm 1 m/S 752 mmHg 90%
23:00 +18°C° 0 mm 1 m/S 752 mmHg 93%

28 Juni, Montag

Zeit Temperatur Niederschläge Wind Luftdruck Luftfeuchtigkeit
00:00 +16°C° 0 mm 1 m/S 752 mmHg 94%
01:00 +16°C° 0 mm 1 m/S 752 mmHg 95%
02:00 +15°C° 0 mm 1 m/S 752 mmHg 96%
03:00 +16°C° 0 mm 1 m/S 752 mmHg 95%
04:00 +16°C° 0 mm 1 m/S 752 mmHg 94%
05:00 +16°C° 0 mm 1 m/S 752 mmHg 92%
06:00 +19°C° 0 mm 1 m/S 752 mmHg 84%
07:00 +20°C° 0 mm 2 m/S 752 mmHg 75%
08:00 +21°C° 0 mm 2 m/S 752 mmHg 66%
09:00 +24°C° 0 mm 2 m/S 752 mmHg 60%
10:00 +25°C° 0 mm 2 m/S 752 mmHg 55%
11:00 +26°C° 0 mm 2 m/S 752 mmHg 49%
12:00 +27°C° 0 mm 2 m/S 752 mmHg 47%
13:00 +27°C° 0 mm 3 m/S 752 mmHg 44%
14:00 +28°C° 0 mm 3 m/S 751 mmHg 42%
15:00 +27°C° 0 mm 2 m/S 751 mmHg 45%
16:00 +27°C° 0 mm 2 m/S 751 mmHg 49%
17:00 +26°C° 0 mm 2 m/S 751 mmHg 52%
18:00 +25°C° 0 mm 2 m/S 751 mmHg 58%
19:00 +24°C° 0 mm 2 m/S 751 mmHg 63%
20:00 +23°C° 0 mm 2 m/S 751 mmHg 68%
21:00 +21°C° 0 mm 2 m/S 751 mmHg 69%
22:00 +21°C° 0 mm 2 m/S 751 mmHg 70%
23:00 +20°C° 0 mm 2 m/S 751 mmHg 71%

29 Juni, Dienstag

Zeit Temperatur Niederschläge Wind Luftdruck Luftfeuchtigkeit
00:00 +20°C° 0 mm 2 m/S 752 mmHg 73%
01:00 +19°C° 0 mm 2 m/S 752 mmHg 76%
02:00 +19°C° 0 mm 2 m/S 752 mmHg 78%
03:00 +18°C° 0 mm 2 m/S 752 mmHg 80%
04:00 +19°C° 0 mm 1 m/S 752 mmHg 82%
05:00 +18°C° 0 mm 1 m/S 752 mmHg 84%
06:00 +19°C° 0 mm 2 m/S 752 mmHg 76%
07:00 +21°C° 0 mm 2 m/S 752 mmHg 68%
08:00 +24°C° 0 mm 2 m/S 752 mmHg 60%
09:00 +25°C° 0 mm 2 m/S 752 mmHg 54%
10:00 +26°C° 0 mm 2 m/S 752 mmHg 48%
11:00 +27°C° 0 mm 2 m/S 752 mmHg 43%
12:00 +28°C° 0 mm 2 m/S 752 mmHg 41%
13:00 +29°C° 0 mm 3 m/S 752 mmHg 39%
14:00 +29°C° 0 mm 3 m/S 752 mmHg 37%
15:00 +29°C° 0 mm 3 m/S 752 mmHg 39%
16:00 +29°C° 0 mm 3 m/S 751 mmHg 40%
17:00 +29°C° 0 mm 3 m/S 751 mmHg 42%
18:00 +27°C° 0 mm 2 m/S 751 mmHg 51%
19:00 +25°C° 0 mm 2 m/S 751 mmHg 60%
20:00 +23°C° 0 mm 2 m/S 751 mmHg 69%
21:00 +21°C° 0 mm 2 m/S 751 mmHg 73%
22:00 +20°C° 0 mm 2 m/S 751 mmHg 76%
23:00 +19°C° 0 mm 2 m/S 751 mmHg 80%
Mehr zeigen

Wir brauchen deine Erlaubnis

Meteoprog und unser Service Anbieter werden persönliche Daten aufbewahren, so wie Cookies, Geräte Bezeichnung oder ähnliche Technologien von deinem Gerät und Prozess, so wie Persönliche Daten Inhalte und Werbungen, genauso wie social Media und den Verkehr zu analysieren.

  • Aufbewahrung und/oder Zugang zu deiner Geräte Informationen.

    Cookies, Geräte Bezeichnung oder andere Informationen, können aufbewahrt oder Zugang zu deinem Gerät erhalten, für den Grund, der oben angegeben wird.

  • Personalisierte Werbung und Inhalte, Messungen, Einblick in das Publikum und Produkt Entwicklung.

    Werbungen und Inhalte können personalisiert werden, basierend auf ein Profil. Mehr Daten können besser personalisierte Werbungen und Inhalte hinzufügen. Werbung und Inhalte können gezeigt und gemessen werden. Einblicke über das Publikum, welche die Werbung gesehen haben und den Inhalt, können abgeleitet werden. So wie Daten können genutzt werden, um es zu verbessern oder die Benutzer Erfahrung zu verbessern das System und die Software.

Wenn du “Ich stimme zu” klickst, erlaubst du uns, die Cookies zu benutzen die Geräte Bezeichnung, den Web oder ähnliche Technologien zu benutzen. Deine Settings, können in deinem Gerät bei deinem Browser geändert werden.

Für den bestimmten Zweck, berechtigten Interessen beruhen darauf, mehr als auf den Inhalt. Du kannst mehr darüber in unseren Privaten und Cookie Politik lesen.